Location: Dzierzno
(50.6159°N, 19.2852°E)
Time: 21:50:10
(UTC+00:00)

USA 281 - Pass Details

Date: 18 November 2025
Orbit: 1079 x 1080 km, 106.0° (Epoch: 27 November)

Event Time Altitude Azimuth Distance (km) Brightness Sun altitude
Exits shadow 18:11:30 87° 193° (SSW) 1,089 3.1 -31.2°
Maximum altitude 18:11:35 88° 241° (WSW) 1,088 3.1 -31.2°
Drops below altitude 10° 18:18:12 10° 333° (NNW) 2,932 5.9 -32.2°
Sets 18:20:43 0° 334° (NNW) 3,891 6.6 -32.6°
